Regional Weather Roundup
Issued by NWS Goodland, KS

Home | Current Version | Previous Version | Graphics & Text | Print | Product List | Glossary On
Versions: 1 2 3 4 5 6 7 8 9 10 11 12 13 14 15 16 17 18 19 20 21 22 23 24 25 26 27 28 29 30 31 32 33 34 35 36 37 38 39 40 41 42 43 44 45 46 47 48 49 50
000
ASUS43 KGLD 171808
RWRGLD

GOODLAND FORECAST AREA HOURLY WEATHER ROUNDUP
NATIONAL WEATHER SERVICE GOODLAND KS
1200 PM MDT THU AUG 17 2017

...OFFICIAL OBSERVATIONS...

CITY           SKY/WX    TMP DP  RH WIND       PRES   REMARKS
GOODLAND KS    SUNNY     79  59  50 S14G20    30.10F
HILL CITY KS   SUNNY     84  48  28 S8        30.06F
IMPERIAL NEB   SUNNY     84  54  35 S12G20    30.06F
MCCOOK NEB     SUNNY     83  55  38 SW8       30.04F
AKRON CO       SUNNY     81  48  31 W12       30.11F
BURLINGTON CO  SUNNY     80  57  45 S17       30.14F
LIMON CO       SUNNY     76  56  49 S12G17    30.18F
$$

...UNOFFICIAL OBSERVATIONS...

CITY           SKY/WX    TMP DP  RH WIND       PRES   REMARKS
LENORA KS        N/A     82  32  16 CALM        N/A
NORTON KS      SUNNY     82  43  24 S6        30.04F
SHARON SPRINGS   N/A     83  59  43 S14         N/A
TRENTON NEB      N/A     84  32  15 SW6         N/A
KIT CARSON CO    N/A     78  58  49 MISG        N/A
YUMA CO        FAIR      79  45  29 S14G22    30.08F
$$



USA.gov is the U.S. government's official web portal to all federal, state and local government web resources and services.